DISCOBAYS Weather Reports


time (UTC)temp
F
wind
direction
speed
knots
gust
knots
rain 1hr
in
rain 24hr
in
rain mn
in
humidity
%
barometer
mb
20260505051557 55 18 0.0 0.0 0.00 0.00 0.00 88 1012.5
20260505041517 58 18 0.0 0.0 0.00 0.00 0.00 83 1012.0
20260505040043 59 18 0.0 0.9 0.00 0.00 0.00 82 1011.9
20260505034526 60 18 0.0 0.0 0.00 0.00 0.00 80 1011.7
20260505033019 61 18 0.0 0.0 0.00 0.00 0.00 79 1011.5
20260505031548 62 18 0.0 0.0 0.00 0.00 0.00 77 1011.2
20260505030026 63 18 0.0 1.7 0.00 0.00 0.00 75 1011.1
20260505024555 63 19 0.0 0.0 0.00 0.00 0.00 75 1011.1
20260505023024 64 20 0.0 0.0 0.00 0.00 0.00 74 1011.0
20260505021601 64 20 0.0 0.0 0.00 0.00 0.00 71 1011.1
20260505021501 64 20 0.0 0.0 0.00 0.00 0.00 71 1011.1
20260505020032 65 20 0.0 1.7 0.00 0.00 0.00 68 1011.2
20260505014514 65 9 0.9 3.5 0.00 0.00 0.00 67 1011.3
20260505013042 65 11 1.7 5.2 0.00 0.00 0.00 66 1011.3
20260505011515 66 5 1.7 5.2 0.00 0.00 0.00 65 1011.4
20260505010040 66 20 2.6 4.3 0.00 0.00 0.00 63 1011.6
20260505004519 67 15 1.7 6.1 0.00 0.00 0.00 62 1011.7
20260505003046 67 14 3.5 7.8 0.00 0.00 0.00 63 1011.7
20260505001527 67 5 4.3 7.8 0.00 0.00 0.00 61 1011.6
20260505000050 67 15 2.6 7.8 0.00 0.00 0.00 61 1011.7
20260504234528 68 13 1.7 9.6 0.00 0.00 0.00 60 1011.6
20260504233056 70 38 2.6 7.0 0.00 0.00 0.00 59 1011.5
20260504231538 70 15 3.5 7.8 0.00 0.00 0.00 55 1011.6
20260504230006 70 360 6.1 8.7 0.00 0.00 0.00 53 1011.5
20260504224548 69 31 0.9 7.0 0.00 0.00 0.00 52 1011.8
20260504223012 68 22 3.5 7.8 0.00 0.00 0.00 56 1011.9
20260504221546 68 19 6.1 10.4 0.00 0.00 0.00 54 1012.0
20260504220024 68 14 6.1 10.4 0.00 0.00 0.00 55 1012.1
20260504214557 68 22 7.0 12.2 0.00 0.00 0.00 56 1012.1
20260504213024 70 5 6.1 11.3 0.00 0.00 0.00 52 1012.2
20260504211559 73 22 4.3 7.8 0.00 0.00 0.00 47 1012.3
20260504211502 73 355 3.5 7.8 0.00 0.00 0.00 48 1012.3
20260504210032 72 65 6.1 9.6 0.00 0.00 0.00 48 1012.3
20260504204515 71 28 5.2 9.6 0.00 0.00 0.00 52 1012.3
20260504203049 71 39 4.3 11.3 0.00 0.00 0.00 56 1012.3
20260504201528 70 48 4.3 9.6 0.00 0.00 0.00 58 1012.4
20260504200101 70 39 5.2 8.7 0.00 0.00 0.00 57 1012.4
20260504194539 69 47 5.2 8.7 0.00 0.00 0.00 57 1012.5
20260504193059 69 60 5.2 9.6 0.00 0.00 0.00 57 1012.4
20260504191551 69 17 5.2 11.3 0.00 0.00 0.00 54 1012.5
20260504190010 68 38 5.2 10.4 0.00 0.00 0.00 56 1012.5
20260504184554 68 5 0.9 8.7 0.00 0.00 0.00 56 1012.6
20260504183012 67 38 1.7 12.2 0.00 0.00 0.00 59 1012.8
20260504181549 66 5 7.0 12.2 0.00 0.00 0.00 62 1012.8
20260504180012 65 37 6.1 10.4 0.00 0.00 0.00 64 1012.7
20260504174548 65 27 5.2 11.3 0.00 0.00 0.00 65 1012.7
20260504173029 66 42 0.0 8.7 0.00 0.00 0.00 62 1012.7
20260504171510 66 34 0.0 9.6 0.00 0.00 0.00 61 1012.7
20260504081530 54 11 0.0 0.9 0.00 0.00 0.00 75 1011.1